Location: Audruicq
(50.8780°N, 2.0797°E)
Time: 19:54:41
(UTC+00:00)

ISS - Pass Details

Date: 15 May 2026
Orbit: 413 x 422 km, 51.6° (Epoch: 8 June)

Event Time Altitude Azimuth Distance (km) Brightness Sun altitude
Rises 21:21:26 0° 277° (W) 2,351 0.7 -13.0°
Reaches altitude 10° 21:23:32 10° 278° (W) 1,488 -0.3 -13.2°
Maximum altitude 21:26:52 79° 5° (N) 427 -3.7 -13.5°
Enters shadow 21:29:40 14° 93° (E) 1,271 -1.7 -13.8°
